Regional Weather Roundup
Issued by NWS

Home | Current Version | Previous Version | Graphics & Text | Print | Product List | Glossary Off
Versions: 1 2 3 4 5 6 7 8 9 10 11 12 13 14 15 16 17 18 19 20 21 22 23 24 25 26 27 28 29 30 31 32 33 34 35 36 37 38 39 40 41 42 43 44 45 46 47 48 49 50

698
ASUS43 KMPX 270901
RWRMN
WEATHER ROUNDUP FOR MINNESOTA
NATIONAL WEATHER SERVICE TWIN CITIES/CHANHASSEN MN
400 AM CDT TUE SEP 27 2016


NOTE: "FAIR" INDICATES FEW OR NO CLOUDS BELOW 12,000 FEET WITH NO
SIGNIFICANT WEATHER AND/OR OBSTRUCTIONS TO VISIBILITY. N/A MEANS
CURRENT SKY AND/OR WEATHER CONDITIONS ARE NOT AVAILABLE.

MNZ060>063-068>070-271000-
   Twin Cities Metro

CITY           SKY/WX    TMP DP  RH WIND       PRES   REMARKS
TWIN CITIES    CLEAR     51  37  58 W14       29.84F
ST PAUL        CLEAR     51  38  60 W12       29.83F
CRYSTAL        CLEAR     50  37  61 W9        29.83F
BLAINE         CLEAR     52  39  62 W12G17    29.82F
LAKEVILLE      CLEAR     46  37  71 W10       29.85F
EDEN PRAIRIE   CLEAR     51  37  58 W13       29.85F
LAKEVILLE      CLEAR     46  37  71 W10       29.85F
SOUTH ST PAUL  CLEAR     52  37  55 W13G18    29.82F
LAKE ELMO      FAIR      50  41  71 W9G16     29.82F
$$
MNZ001>005-007-008-013>017-022>024-027-028-271000-
   Northwest Minnesota

CITY           SKY/WX    TMP DP  RH WIND       PRES   REMARKS
BEMIDJI        CLOUDY    47  41  81 W12       29.81F
HALLOCK        CLEAR     45  41  87 W8        29.89S
ROSEAU         CLOUDY    52  45  76 NW10      29.81F
WARROAD        CLOUDY    50  45  81 NW9       29.80S
THIEF RVR FALL CLEAR     45  41  86 W14       29.87F
CROOKSTON      CLEAR     43  39  87 NW8       29.91S
FOSSTON        CLEAR     43  39  87 NW10G16   29.87F
DETROIT LAKES  CLEAR     45  41  87 NW12G18   29.89F
MOORHEAD       CLEAR     41  36  81 NW6       29.93S
PARK RAPIDS    CLEAR     46  39  76 NW9       29.84S
MAHNOMEN       FAIR      43  40  89 NW14G20   29.87F
$$
MNZ006-009>011-018-025>026-271000-
   North Central Minnesota

CITY           SKY/WX    TMP DP  RH WIND       PRES   REMARKS
BAUDETTE       LGT RAIN  50  45  83 NW15G23   29.75F
FLAG ISLAND    CLOUDY    50  45  81 NW25      29.77R
INTL FALLS     CLOUDY    48  45  89 NW13G20   29.69F
WASKISH        CLOUDY    50  45  81 W16G22    29.78S
BIG FORK       LGT RAIN  48  45  87 W8        29.73S
GRAND RAPIDS   CLOUDY    50  42  74 NW20G26   29.76S
ORR            MIX PCPN  46  45  93 NW7       29.66S
COOK           RAIN      46  45  93 NW6       29.69S
WALKER         CLOUDY    47  41  80 NW12G20   29.80F
$$
MNZ012-019>021-037-271000-
   Northeast Minnesota

CITY           SKY/WX    TMP DP  RH WIND       PRES   REMARKS
DULUTH         CLOUDY    50  45  83 NW17G24   29.67F
ELY            CLOUDY    46  45  93 NW10G18   29.62S
HIBBING        LGT RAIN  47  44  90 NW14G25   29.70S
EVELETH        DRIZZLE   48  46  90 NW14G21   29.68S
DULUTH HARBOR  CLOUDY    55  46  71 W17       29.69S
TWO HARBORS    LGT RAIN  54  46  76 W7G18     29.62S
SILVER BAY     MOCLDY    50  46  87 NW3       29.59S
GRAND MARAIS     N/A     51  46  83 VRB7      29.51R
G MARAIS ARPRT DRIZZLE   45  41  87 W10G22    29.51S
$$
MNZ029>031-032-039>041-046>048-054>057-064-271000-
   West Central Minnesota

CITY           SKY/WX    TMP DP  RH WIND       PRES   REMARKS
FERGUS FALLS   CLEAR     37  34  87 W3        29.95R
MORRIS         CLEAR     43  36  75 NW8       29.92F
ALEXANDRIA     CLEAR     44  39  82 W10       29.91S
ELBOW LAKE     FAIR      38  35  89 NW6       29.93S
GLENWOOD       CLEAR     39  36  87 W7        29.91S
BENSON         CLEAR     39  36  87 CALM      29.92F
ORTONVILLE     CLEAR     48  36  61 CALM      29.94F
MADISON          N/A     45  39  81 W8        29.95S
WILLMAR        FAIR      43  37  81 W7        29.93S
$$
MNZ033>034-036-042>043-049>051-058-059-271000-
   Central Minnesota

CITY           SKY/WX    TMP DP  RH WIND       PRES   REMARKS
ST CLOUD       CLEAR     48  40  73 W9        29.84F
SAUK CENTRE    FAIR      42  37  81 W9        29.89S
PAYNESVILLE    CLEAR     41  37  84 W8        29.90S
AITKIN         MOCLDY    52  39  62 W7        29.77S
PINE RIVER     MOCLDY    46  43  87 W8        29.84F
BRAINERD       CLEAR     48  41  76 W12G23    29.82S
STAPLES        CLEAR     45  39  81 W12       29.85S
LONG PRAIRIE   FAIR      46  37  71 SW10      29.88S
LITTLE FALLS   CLEAR     46  37  71 W7        29.85S
LITCHFIELD     CLEAR     48  39  71 W6        29.90S
BUFFALO        CLEAR     49  38  65 W10       29.87S
MAPLE LAKE     CLEAR     49  39  70 W6        29.87F
HUTCHINSON     CLEAR     45  39  78 W6        29.91S
$$
MNZ037-044-045-052-053-271000-
   East Central Minnesota

CITY           SKY/WX    TMP DP  RH WIND       PRES   REMARKS
PRINCETON      CLEAR     46  41  81 W8        29.83S
MORA           CLOUDY    48  41  76 W12       29.81S
CAMBRIDGE      CLEAR     52  39  62 W9G17     29.80S
MOOSE LAKE     CLOUDY    52  41  66 W7        29.72F
HINCKLEY       CLOUDY    52  43  71 W10G18    29.76F
CLOQUET        CLOUDY    52  43  71 W13G18    29.70F
MCGREGOR       CLOUDY    52  43  71 W12G20    29.76S
$$
MNZ071>073-080-081-089-090-097-098-271000-
   Southwest Minnesota

CITY           SKY/WX    TMP DP  RH WIND       PRES   REMARKS
MONTEVIDEO     CLEAR     46  37  71 NW5       29.95F
GRANITE FALLS  CLEAR     42  38  86 W9        29.95S
CANBY          CLEAR     48  38  66 NW8       29.97F
MARSHALL       CLEAR     46  36  68 W12       29.96S
REDWOOD FALLS  CLEAR     46  37  71 W10       29.93F
OLIVIA         CLEAR     46  36  66 W7        29.92S
PIPESTONE      CLEAR     43  36  75 W5        29.99F
WINDOM         CLEAR     46  37  71 W8        29.95F
WORTHINGTON    CLEAR     44  37  76 W12       29.98F
JACKSON        CLEAR     46  34  61 W8        29.97S
TRACY          CLEAR     49  38  65 W5        29.97S
$$
MNZ065>067-074>077-082>085-091>093-271000-
   South Central Minnesota

CITY           SKY/WX    TMP DP  RH WIND       PRES   REMARKS
MANKATO        CLEAR     49  37  63 NW10      29.91F
ST JAMES       CLEAR     46  37  71 W8        29.94F
FAIRMONT       CLEAR     51  36  56 NW13      29.94F
GLENCOE        CLEAR     47  40  77 W8        29.89F
FARIBAULT      CLEAR     48  37  66 W8        29.89S
OWATONNA       CLEAR     45  37  76 W6        29.89S
WASECA         CLEAR     41  36  81 W5        29.91S
ALBERT LEA     CLEAR     48  37  66 W7        29.90S
$$
MNZ078>079-086>088-094>096-271000-
   Southeast Minnesota

CITY           SKY/WX    TMP DP  RH WIND       PRES   REMARKS
ROCHESTER      CLEAR     47  37  68 W12       29.86F
RED WING       CLEAR     52  36  54 W10       29.81F
DODGE CENTER   CLEAR     45  37  76 W8        29.88R
WINONA         CLEAR     54  36  50 W15G23    29.81F
AUSTIN           N/A     46  37  71 W7        29.89S
PRESTON        CLEAR     45  35  68 W13       29.87S
$$
ABBREVIATIONS USED IN REMARKS
   TC - TEMPERATURES IN CELSIUS
  WCI - WIND CHILL INDEX
   HX - HEAT INDEX
  VSB - VISIBILITY
$$




USA.gov is the U.S. government's official web portal to all federal, state and local government web resources and services.